Concordia, KS

9:18 PM CDT on October 19, 2017 (GMT -0500)
Blosser Municipal

Weather History for KCNK - December, 2013

Change the Weather History Date:

Saturday, December 14, 2013

  Actual Average Record
Temperature  
Mean Temperature 24 °F 30 °F  
Max Temperature 29 °F 39 °F 64 °F (2006)
Min Temperature 18 °F 20 °F -10 °F (1989)
Degree Days  
Heating Degree Days 41 35  
Month to date heating degree days 586 468  
Since 1 July heating degree days 1642 1560  
Cooling Degree Days 0 0  
Month to date cooling degree days 0 0  
Year to date cooling degree days 1359 1349  
Moisture  
Dew Point 18 °F    
Average Humidity 80    
Maximum Humidity 92    
Minimum Humidity 68    
Precipitation  
Precipitation 0.00 in 0.02 in 0.55 in (1891)
Month to date precipitation 0.19 0.45  
Year to date precipitation 26.84 27.49  
Snow  
Snow 0.00 in 0.10 in 3.60 in (1955)
Month to date snowfall 2.6 1.7  
Year to date snowfall 22.9 18.1  
Since 1 July snowfall 2.6 4.4  
Snow Depth 0.00 in    
Sea Level Pressure  
Sea Level Pressure 30.22 in    
Wind  
Wind Speed 11 mph (NW)    
Max Wind Speed 23 mph    
Max Gust Speed 27 mph    
Visibility 7 miles    
Events      
T = Trace of Precipitation, MM = Missing Value Source: NWS Daily Summary

Daily Weather History Graph

Daily Weather History Graph

Search for Another Location

Airport or City:

Trip Planner

Search our weather history database for the weather conditions in past years. The results will help you decide how hot, cold, wet, or windy it might be!

Date:

Astronomy

Dec. 14, 2013 Rise Set
Actual Time 7:43 AM CST 5:07 PM CST
Civil Twilight 7:13 AM CST 5:37 PM CST
Nautical Twilight 6:39 AM CST 6:11 PM CST
Astronomical Twilight 6:06 AM CST 6:44 PM CST
Moon 3:29 PM CST (12/14) 5:05 AM CST (12/14)
Length of Visible Light 10h 24m
Length of Day
9h 24m
Waxing Gibbous, 94% of the Moon is Illuminated
Dec 14
Waxing Gibbous
Dec 17
Full
Dec 25
Last Quarter
Jan 1
New
Jan 7
First Quarter

Hourly Weather History & Observations

Time (CST) Temp. Windchill Dew Point Humidity Pressure Visibility Wind Dir Wind Speed Gust Speed Precip Events Conditions
12:18 AM 23.0 °F 8.3 °F 19.9 °F 88% 30.04 in 5.0 mi North 19.6 mph 27.6 mph N/A   Overcast
12:55 AM 21.9 °F 8.7 °F 19.9 °F 92% 30.10 in 5.0 mi North 15.0 mph - N/A   Overcast
1:55 AM 21.9 °F 9.2 °F 19.0 °F 89% 30.11 in 5.0 mi North 13.8 mph 24.2 mph N/A   Overcast
2:55 AM 21.9 °F 6.9 °F 18.0 °F 85% 30.13 in 5.0 mi North 19.6 mph 27.6 mph N/A   Overcast
3:55 AM 21.9 °F 9.8 °F 19.0 °F 89% 30.17 in 5.0 mi North 12.7 mph - N/A   Overcast
4:41 AM 19.9 °F 5.7 °F 17.1 °F 89% 30.12 in 4.0 mi North 16.1 mph 25.3 mph N/A   Overcast
4:55 AM 19.9 °F 5.2 °F 17.1 °F 89% 30.17 in 4.0 mi North 17.3 mph - N/A   Overcast
5:17 AM 19.9 °F 5.7 °F 16.0 °F 85% 30.13 in 5.0 mi North 16.1 mph - N/A   Overcast
5:55 AM 19.0 °F 4.5 °F 15.1 °F 85% 30.21 in 6.0 mi NNW 16.1 mph - N/A   Overcast
6:55 AM 18.0 °F 5.4 °F 14.0 °F 84% 30.24 in 6.0 mi NNW 11.5 mph - N/A   Mostly Cloudy
7:06 AM 18.0 °F 4.8 °F 14.0 °F 84% 30.18 in 6.0 mi NNW 12.7 mph - N/A   Scattered Clouds
7:55 AM 18.0 °F 2.6 °F 15.1 °F 88% 30.25 in 4.0 mi NNW 17.3 mph - N/A   Overcast
8:55 AM 19.0 °F 5.6 °F 14.0 °F 81% 30.29 in 5.0 mi NNW 13.8 mph - N/A   Haze
9:55 AM 21.0 °F 7.6 °F 15.1 °F 78% 30.30 in 7.0 mi NNW 15.0 mph - N/A   Clear
10:55 AM 21.9 °F 11.0 °F 15.1 °F 75% 30.30 in 7.0 mi NW 10.4 mph - N/A   Clear
11:55 AM 24.1 °F 13.7 °F 16.0 °F 71% 30.28 in 7.0 mi NW 10.4 mph - N/A   Clear
12:25 PM 25.0 °F 14.2 °F 16.0 °F 69% 30.21 in 7.0 mi NW 11.5 mph - N/A   Mostly Cloudy
12:55 PM 27.0 °F 16.1 °F 17.1 °F 66% 30.26 in 8.0 mi NNW 12.7 mph - N/A   Overcast
1:55 PM 27.0 °F 16.1 °F 18.0 °F 69% 30.25 in 9.0 mi NNW 12.7 mph - N/A   Mostly Cloudy
2:45 PM 28.9 °F 19.2 °F 19.9 °F 69% 30.20 in 10.0 mi NW 11.5 mph - N/A   Scattered Clouds
2:55 PM 28.0 °F 18.1 °F 19.9 °F 72% 30.25 in 10.0 mi NW 11.5 mph - N/A   Scattered Clouds
3:12 PM 28.9 °F 17.7 °F 19.9 °F 69% 30.20 in 10.0 mi NW 15.0 mph - N/A   Mostly Cloudy
3:32 PM 28.0 °F 18.6 °F 21.0 °F 75% 30.20 in 10.0 mi NW 10.4 mph - N/A   Scattered Clouds
3:55 PM 28.0 °F 18.1 °F 21.9 °F 78% 30.26 in 10.0 mi NW 11.5 mph - N/A   Mostly Cloudy
4:39 PM 28.0 °F 19.3 °F 21.9 °F 78% 30.21 in 9.0 mi NW 9.2 mph - N/A   Partly Cloudy
4:55 PM 27.0 °F 19.5 °F 21.0 °F 78% 30.27 in 10.0 mi NW 6.9 mph - N/A   Clear
5:55 PM 25.0 °F 20.7 °F 21.0 °F 85% 30.26 in 10.0 mi West 3.5 mph - N/A   Clear
6:55 PM 23.0 °F 14.7 °F 19.9 °F 88% 30.25 in 9.0 mi SW 6.9 mph - N/A   Clear
7:55 PM 21.9 °F 13.4 °F 19.0 °F 89% 30.26 in 9.0 mi SW 6.9 mph - N/A   Clear
8:55 PM 21.0 °F 12.4 °F 19.0 °F 92% 30.25 in 9.0 mi SSW 6.9 mph - N/A   Clear
9:55 PM 23.0 °F 17.0 °F 19.9 °F 88% 30.22 in 9.0 mi SSW 4.6 mph - N/A   Clear
10:55 PM 19.9 °F - 18.0 °F 92% 30.23 in 7.0 mi Calm Calm - N/A   Clear
11:55 PM 19.9 °F - 17.1 °F 89% 30.22 in 6.0 mi Calm Calm - N/A   Clear